Midland Airpark, TX

3:20 AM CST on December 12, 2017 (GMT -0600)
Midland

Weather History for KMDD - April, 2013

Change the Weather History Date:

Saturday, April 6, 2013

  Actual Average (KMAF) Record (KMAF)
Temperature  
Mean Temperature 70 °F -  
Max Temperature 88 °F 72 °F 99 °F (1972)
Min Temperature 54 °F 45 °F 25 °F (1994)
Cooling Degree Days 6    
Growing Degree Days 20 (Base 50)    
Moisture  
Dew Point 30 °F    
Average Humidity 28    
Maximum Humidity 57    
Minimum Humidity 8    
Precipitation  
Precipitation 0.00 in - - ()
Sea Level Pressure  
Sea Level Pressure 29.88 in    
Wind  
Wind Speed 13 mph (SW)    
Max Wind Speed 18 mph    
Max Gust Speed 29 mph    
Visibility 10 miles    
Events      
Averages and records for this station are not official NWS values.
T = Trace of Precipitation, MM = Missing Value Source: NWS Daily Summary

Daily Weather History Graph

Daily Weather History Graph

Search for Another Location

Airport or City:

Trip Planner

Search our weather history database for the weather conditions in past years. The results will help you decide how hot, cold, wet, or windy it might be!

Date:

Astronomy

Apr. 06, 2013 Rise Set
Actual Time 7:30 AM CDT 8:11 PM CDT
Civil Twilight 7:05 AM CDT 8:36 PM CDT
Nautical Twilight 6:36 AM CDT 9:05 PM CDT
Astronomical Twilight 6:06 AM CDT 9:35 PM CDT
Moon 5:02 AM CDT (4/6) 4:53 PM CDT (4/6)
Length of Visible Light 13h 31m
Length of Day
12h 41m
Waning Crescent, 15% of the Moon is Illuminated
Apr 6
Waning Crescent
Apr 10
New
Apr 18
First Quarter
Apr 25
Full
May 2
Last Quarter

Hourly Weather History & Observations

Time (CDT) Temp. Dew Point Humidity Pressure Visibility Wind Dir Wind Speed Gust Speed Precip Events Conditions
12:15 AM 66.2 °F 41.7 °F 41% 29.93 in 10.0 mi South 18.4 mph - N/A   Clear
12:35 AM 65.5 °F 41.9 °F 42% 29.92 in 10.0 mi South 16.1 mph 28.8 mph N/A   Clear
12:55 AM 64.4 °F 41.5 °F 43% 29.92 in 10.0 mi South 15.0 mph 23.0 mph N/A   Clear
1:15 AM 63.9 °F 41.4 °F 44% 29.92 in 10.0 mi South 18.4 mph 26.5 mph N/A   Clear
1:35 AM 63.7 °F 40.8 °F 43% 29.92 in 10.0 mi South 17.3 mph 21.9 mph N/A   Clear
1:55 AM 63.5 °F 40.3 °F 43% 29.91 in 10.0 mi South 17.3 mph 26.5 mph N/A   Clear
2:15 AM 63.0 °F 40.1 °F 43% 29.91 in 10.0 mi South 16.1 mph 21.9 mph N/A   Clear
2:35 AM 62.6 °F 39.6 °F 43% 29.90 in 10.0 mi South 17.3 mph 21.9 mph N/A   Clear
2:55 AM 61.9 °F 39.6 °F 44% 29.89 in 10.0 mi South 18.4 mph 26.5 mph N/A   Clear
3:15 AM 61.7 °F 39.4 °F 44% 29.89 in 10.0 mi South 16.1 mph 21.9 mph N/A   Clear
3:35 AM 61.0 °F 39.4 °F 45% 29.89 in 10.0 mi South 12.7 mph 24.2 mph N/A   Clear
3:55 AM 60.4 °F 39.4 °F 46% 29.89 in 10.0 mi South 12.7 mph 19.6 mph N/A   Clear
4:15 AM 60.3 °F 39.6 °F 46% 29.89 in 10.0 mi South 16.1 mph 24.2 mph N/A   Clear
4:35 AM 59.9 °F 39.7 °F 47% 29.89 in 10.0 mi SSW 12.7 mph - N/A   Clear
4:55 AM 59.0 °F 39.6 °F 49% 29.88 in 10.0 mi South 12.7 mph 18.4 mph N/A   Clear
5:15 AM 58.6 °F 39.9 °F 50% 29.88 in 10.0 mi South 12.7 mph - N/A   Clear
5:35 AM 58.1 °F 40.1 °F 51% 29.88 in 10.0 mi South 13.8 mph - N/A   Clear
5:55 AM 57.6 °F 40.1 °F 52% 29.88 in 10.0 mi South 12.7 mph - N/A   Clear
6:15 AM 57.2 °F 40.1 °F 53% 29.88 in 10.0 mi South 12.7 mph - N/A   Clear
6:35 AM 56.7 °F 40.1 °F 54% 29.88 in 10.0 mi South 9.2 mph - N/A   Clear
6:55 AM 56.1 °F 40.1 °F 55% 29.89 in 10.0 mi South 6.9 mph - N/A   Clear
7:15 AM 55.4 °F 39.9 °F 56% 29.89 in 10.0 mi South 8.1 mph - N/A   Clear
7:35 AM 54.9 °F 39.9 °F 57% 29.89 in 10.0 mi SSW 9.2 mph - N/A   Clear
7:55 AM 55.8 °F 40.1 °F 56% 29.91 in 10.0 mi SSW 6.9 mph - N/A   Clear
8:15 AM 56.3 °F 40.5 °F 55% 29.91 in 10.0 mi SSW 8.1 mph - N/A   Clear
8:35 AM 57.4 °F 40.6 °F 54% 29.92 in 10.0 mi SSW 6.9 mph - N/A   Clear
8:55 AM 58.6 °F 40.5 °F 51% 29.92 in 10.0 mi SSW 5.8 mph - N/A   Clear
9:15 AM 60.8 °F 40.6 °F 47% 29.93 in 10.0 mi SW 6.9 mph - N/A   Clear
9:35 AM 63.5 °F 40.1 °F 42% 29.93 in 10.0 mi SW 6.9 mph - N/A   Clear
9:55 AM 65.8 °F 39.6 °F 38% 29.93 in 10.0 mi SW 8.1 mph - N/A   Clear
10:15 AM 69.1 °F 38.3 °F 32% 29.93 in 10.0 mi SW 10.4 mph - N/A   Clear
10:35 AM 71.4 °F 37.9 °F 30% 29.93 in 10.0 mi SW 10.4 mph - N/A   Clear
10:55 AM 73.9 °F 36.7 °F 26% 29.93 in 10.0 mi SW 9.2 mph - N/A   Clear
11:15 AM 76.6 °F 35.4 °F 22% 29.93 in 10.0 mi SW 11.5 mph 17.3 mph N/A   Clear
11:35 AM 78.6 °F 33.6 °F 20% 29.93 in 10.0 mi WSW 10.4 mph 16.1 mph N/A   Clear
11:55 AM 79.5 °F 31.8 °F 18% 29.93 in 10.0 mi WSW 11.5 mph - N/A   Clear
12:15 PM 80.1 °F 30.2 °F 16% 29.93 in 10.0 mi West 11.5 mph - N/A   Clear
12:35 PM 80.8 °F 29.3 °F 15% 29.92 in 10.0 mi West 12.7 mph - N/A   Clear
12:55 PM 82.9 °F 28.2 °F 14% 29.91 in 10.0 mi WNW 10.4 mph - N/A   Clear
1:15 PM 84.2 °F 24.1 °F 11% 29.90 in 10.0 mi West 12.7 mph 23.0 mph N/A   Clear
1:35 PM 85.5 °F 22.5 °F 10% 29.89 in 10.0 mi WSW 12.7 mph 20.7 mph N/A   Clear
1:55 PM 86.0 °F 23.4 °F 10% 29.89 in 10.0 mi West 17.3 mph 21.9 mph N/A   Clear
2:15 PM 85.5 °F 23.2 °F 10% 29.89 in 10.0 mi WNW 13.8 mph 20.7 mph N/A   Clear
2:35 PM 86.0 °F 22.3 °F 10% 29.88 in 10.0 mi West 15.0 mph 20.7 mph N/A   Clear
2:55 PM 85.3 °F 22.3 °F 10% 29.87 in 10.0 mi West 9.2 mph - N/A   Clear
3:15 PM 85.8 °F 21.9 °F 10% 29.86 in 10.0 mi West 12.7 mph 18.4 mph N/A   Clear
3:35 PM 85.8 °F 19.0 °F 9% 29.85 in 10.0 mi West 13.8 mph 17.3 mph N/A   Clear
3:55 PM 86.0 °F 20.1 °F 9% 29.84 in 10.0 mi West 5.8 mph 9.2 mph N/A   Clear
4:15 PM 85.8 °F 20.1 °F 9% 29.83 in 10.0 mi West 11.5 mph 16.1 mph N/A   Clear
4:35 PM 86.0 °F 20.7 °F 9% 29.83 in 10.0 mi SW 6.9 mph - N/A   Clear
4:55 PM 87.6 °F 21.6 °F 9% 29.82 in 10.0 mi West 11.5 mph 17.3 mph N/A   Clear
5:15 PM 86.4 °F 21.2 °F 9% 29.82 in 10.0 mi West 9.2 mph 16.1 mph N/A   Clear
5:35 PM 86.4 °F 19.6 °F 9% 29.82 in 10.0 mi West 11.5 mph - N/A   Clear
5:55 PM 86.2 °F 18.3 °F 8% 29.82 in 10.0 mi West 9.2 mph - N/A   Clear
6:15 PM 87.8 °F 18.5 °F 8% 29.81 in 10.0 mi WSW 12.7 mph 17.3 mph N/A   Clear
6:35 PM 86.9 °F 18.0 °F 8% 29.82 in 10.0 mi WSW 10.4 mph 17.3 mph N/A   Clear
6:55 PM 86.2 °F 18.0 °F 8% 29.82 in 10.0 mi West 11.5 mph 19.6 mph N/A   Clear
7:15 PM 85.6 °F 18.7 °F 8% 29.82 in 10.0 mi WNW 11.5 mph - N/A   Clear
7:35 PM 85.1 °F 19.0 °F 9% 29.82 in 10.0 mi West 12.7 mph - N/A   Clear
7:55 PM 83.7 °F 17.8 °F 9% 29.82 in 10.0 mi West 10.4 mph - N/A   Clear
8:15 PM 81.0 °F 19.4 °F 10% 29.82 in 10.0 mi West 6.9 mph - N/A   Clear
8:35 PM 78.8 °F 20.1 °F 11% 29.82 in 10.0 mi NW 3.5 mph - N/A   Clear
8:55 PM 76.5 °F 20.8 °F 13% 29.83 in 10.0 mi Calm Calm - N/A   Clear
9:15 PM 75.4 °F 21.2 °F 13% 29.84 in 10.0 mi WNW 3.5 mph - N/A   Clear
9:35 PM 72.9 °F 19.9 °F 14% 29.84 in 10.0 mi WNW 4.6 mph - N/A   Clear
9:55 PM 70.9 °F 20.1 °F 15% 29.85 in 10.0 mi West 3.5 mph - N/A   Clear
10:15 PM 70.3 °F 19.4 °F 14% 29.85 in 10.0 mi Calm Calm - N/A   Clear
10:35 PM 68.2 °F 18.9 °F 15% 29.84 in 10.0 mi NW 9.2 mph - N/A   Clear
10:55 PM 68.0 °F 19.6 °F 16% 29.85 in 10.0 mi ESE 9.2 mph - N/A   Clear
11:15 PM 68.9 °F 19.9 °F 16% 29.86 in 10.0 mi ESE 4.6 mph - N/A   Clear
11:35 PM 68.4 °F 20.1 °F 16% 29.87 in 10.0 mi SE 3.5 mph - N/A   Clear
11:55 PM 65.7 °F 21.7 °F 19% 29.86 in 10.0 mi Calm Calm - N/A   Clear